Temp
85 95 102 100 85 88 85 86 95 89 90 94 97 93 88 89 81 71 98 99 102 99 92 90 80 81 81 80 80 80 80 80 80 80 80 81 81 81 81 81 81 82 82 82 82 82 81 81 82
103 103 101 96 84 67 64 92 88 91 93 98 96 94 91 83 93 93 95 100 102 99 95 92 80 80 80 80 80 80 80 80 80 80 80 80 81 81 81 81 81 82 82 82 82 82 82 82 82
98 103 94 93 89 77 55 93 92 92 95 96 94 96 93 87 92 97 100 101 102 100 99 88 80 80 80 80 80 80 80 80 80 81 80 80 81 81 81 81 81 82 82 82 82 82 82 82 82
102 101 98 87 82 90 91 94 95 94 96 98 97 90 95 100 97 100 101 102 101 103 101 82 80 80 80 80 80 80 80 80 80 80 80 80 81 81 81 81 82 82 82 82 82 82 82 82 81
102 98 89 88 89 92 96 97 98 95 95 96 98 89 90 96 100 100 100 102 102 103 100 91 80 80 80 80 80 80 80 80 80 81 81 81 81 81 81 81 82 82 82 82 82 82 81 81 81
95 100 86 85 88 93 96 99 98 97 96 96 96 93 93 99 98 98 102 103 106 103 99 91 81 80 80 80 80 80 80 80 80 80 81 81 81 81 81 81 81 81 82 82 82 82 82 81 80
92 92 88 88 85 90 93 100 97 97 96 93 100 90 95 98 100 101 103 104 104 103 101 95 92 85 80 80 80 80 79 80 80 80 80 81 81 81 81 81 81 82 82 82 82 82 81 80 80
99 96 89 92 88 73 96 98 100 96 95 102 102 91 90 99 101 103 104 102 104 103 103 99 96 95 91 90 80 80 80 80 81 81 81 81 81 81 81 81 82 83 81 81 80 80 79 79 78
103 88 86 90 89 88 98 95 101 103 98 99 100 100 102 101 102 102 100 101 102 102 102 103 101 99 99 98 88 81 80 81 81 82 80 82 93 92 90 81 80 79 79 80 80 79 78 78 78
94 89 90 98 98 95 97 97 97 94 95 95 97 100 102 100 99 99 99 99 100 100 102 104 103 101 103 101 91 92 93 94 94 94 92 94 95 92 93 87 82 82 81 80 80 79 79 79 92
96 88 97 96 98 99 98 97 100 95 92 96 95 97 99 98 98 100 101 101 101 102 103 104 100 99 103 102 97 98 97 96 94 92 91 91 93 94 95 95 96 93 86 94 91 91 92 92 90
90 96 97 98 98 97 95 100 97 97 95 103 104 101 99 97 98 100 101 102 103 102 102 103 101 96 98 102 99 98 98 95 95 92 89 89 91 91 90 91 91 90 92 89 89 90 88 86 86
91 94 98 99 98 98 99 96 96 96 102 103 105 101 98 98 99 101 102 103 103 101 101 102 100 95 94 93 97 97 96 95 93 92 87 87 88 84 87 87 88 88 89 88 86 85 84 83 83
96 95 96 98 98 98 94 96 97 99 104 102 101 100 100 99 99 100 100 100 99 100 100 102 100 93 94 91 92 92 92 91 93 90 86 85 85 80 83 84 85 86 86 83 82 82 80 80 81
94 88 93 94 96 94 97 90 92 101 103 100 99 99 100 99 101 99 100 98 99 100 99 98 97 94 91 90 89 91 92 94 91 88 83 83 81 79 78 83 83 83 80 79 80 80 80 79 80
89 90 83 93 95 95 93 83 95 101 99 98 99 99 99 99 100 101 101 100 100 99 96 96 99 96 90 90 90 92 91 90 88 87 84 83 82 79 77 80 80 79 76 78 78 78 76 75 75
87 80 82 87 96 94 91 86 98 102 99 97 98 100 99 99 100 100 101 101 100 98 97 95 94 97 92 89 89 89 85 87 86 85 84 80 82 80 75 78 78 74 76 76 76 74 72 71 71
80 80 85 84 90 92 88 88 96 98 98 96 98 100 100 98 99 100 100 101 101 100 96 95 94 91 92 89 87 86 85 83 85 85 82 78 80 78 74 77 74 74 74 73 72 68 69 68 68
86 85 83 87 93 89 87 89 92 97 97 96 98 98 98 98 100 102 100 99 99 98 95 92 91 88 89 86 79 77 76 78 77 77 78 76 75 75 72 74 72 71 69 68 68 66 63 63 64
83 81 82 88 91 87 86 86 92 95 94 97 97 98 93 94 99 94 93 95 94 87 86 84 85 82 82 82 79 79 80 77 80 79 74 73 72 71 71 69 68 68 66 67 64 60 58 59 64
81 80 81 82 88 88 85 83 86 91 93 94 92 91 91 90 93 91 89 87 87 85 83 78 76 74 76 77 75 75 76 76 74 73 72 70 71 71 69 69 68 66 66 65 61 60 58 55 62
76 87 85 83 81 74 86 71 83 87 87 88 88 88 87 87 89 91 86 82 80 80 79 76 74 73 75 76 76 75 75 68 69 73 73 71 70 70 72 70 68 67 66 63 63 63 58 57 56
80 87 84 83 80 79 80 75 82 86 82 84 84 83 83 84 87 85 84 80 79 79 77 75 73 72 70 68 70 75 71 76 74 70 69 69 70 72 72 70 69 66 66 64 63 61 59 59 56
88 81 82 82 80 68 77 77 79 82 85 84 83 82 82 83 82 80 80 80 79 80 78 74 69 68 70 71 70 69 68 69 69 66 70 73 75 74 72 69 68 66 64 65 63 62 62 61 56
83 76 67 65 67 66 81 76 80 83 86 87 83 82 83 84 82 80 80 80 78 77 77 74 71 69 70 70 70 69 67 67 69 66 70 67 69 69 70 67 66 64 65 64 63 63 62 60 58
79 78 69 58 63 70 79 69 79 86 87 87 86 84 83 85 84 82 81 80 79 77 76 74 72 71 71 70 68 67 66 70 70 68 67 69 69 70 67 67 67 64 64 66 65 64 58 60 60
80 74 84 72 75 70 73 77 82 85 83 84 84 83 81 82 81 80 79 79 77 75 74 74 73 71 70 68 68 67 67 66 67 66 66 69 67 68 67 67 66 67 65 65 65 66 62 60 60
83 87 71 73 59 58 70 72 72 77 80 83 83 82 80 81 80 78 79 76 76 75 73 74 74 71 70 69 69 67 68 68 67 67 65 65 65 65 65 66 66 66 65 63 62 61 63 60 63
80 77 78 77 74 62 61 67 81 81 83 82 85 86 82 81 80 79 78 76 76 76 76 73 73 71 69 68 68 67 65 67 66 64 66 65 64 65 65 66 66 66 65 64 61 59 60 59 61
85 78 78 68 64 71 69 68 86 87 87 87 87 87 85 84 81 80 78 76 74 74 73 71 70 71 70 68 67 62 65 63 64 62 64 64 63 65 65 66 66 67 66 65 63 63 62 62 60
MSLP
1012.14 1011.44 1009.94 1008.64 1007.24 1004.02 1002.02 1002.57 1002.81 1003.36 1003.77 1004.90 1005.30 1005.49 1006.56 1007.21 1007.68 1009.09 1010.16 1010.91 1010.89 1012.12 1013.82 1014.48 1015.23 1015.61 1015.87 1016.10 1016.34 1016.47 1016.62 1016.77 1016.93 1017.08 1017.22 1017.33 1017.41 1017.50 1017.49 1017.52 1017.54 1017.59 1017.60 1017.51 1017.42 1017.37 1017.31 1017.27 1017.27
1010.33 1009.65 1008.92 1007.03 1004.77 1004.67 1004.37 1002.75 1002.86 1003.76 1004.62 1004.90 1005.56 1005.65 1006.16 1007.54 1008.57 1009.43 1010.26 1010.88 1011.06 1012.29 1013.47 1014.37 1015.38 1015.65 1015.99 1016.27 1016.57 1016.65 1016.75 1016.92 1017.16 1017.39 1017.51 1017.59 1017.65 1017.70 1017.73 1017.66 1017.62 1017.60 1017.59 1017.57 1017.49 1017.41 1017.35 1017.33 1017.27
1011.05 1009.49 1007.79 1004.49 1002.32 1002.81 1004.50 1001.88 1003.19 1004.70 1005.01 1004.66 1005.03 1005.99 1006.48 1008.01 1009.15 1009.35 1010.39 1010.93 1011.32 1012.20 1013.08 1014.75 1015.49 1015.79 1016.08 1016.35 1016.63 1016.83 1017.02 1017.23 1017.48 1017.51 1017.64 1017.70 1017.71 1017.72 1017.71 1017.76 1017.74 1017.71 1017.67 1017.61 1017.56 1017.52 1017.42 1017.36 1017.30
1009.40 1007.97 1006.75 1004.05 1002.08 1001.71 1001.22 1002.03 1003.34 1004.17 1004.60 1004.72 1005.11 1006.07 1007.74 1008.25 1008.96 1009.48 1010.77 1011.09 1011.58 1011.72 1012.74 1015.17 1015.62 1016.01 1016.27 1016.43 1016.84 1017.02 1017.19 1017.43 1017.52 1017.64 1017.65 1017.67 1017.69 1017.74 1017.73 1017.78 1017.78 1017.68 1017.67 1017.62 1017.58 1017.48 1017.41 1017.32 1017.23
1009.08 1007.07 1004.42 1002.41 1000.98 1001.95 1001.98 1002.75 1002.89 1003.18 1004.07 1004.60 1004.90 1006.17 1007.59 1008.99 1009.47 1010.44 1010.97 1011.13 1011.17 1011.56 1012.76 1014.84 1015.86 1016.22 1016.35 1016.62 1016.81 1017.16 1017.30 1017.39 1017.51 1017.55 1017.67 1017.68 1017.72 1017.79 1017.81 1017.88 1017.85 1017.76 1017.73 1017.66 1017.56 1017.46 1017.37 1017.28 1017.19
1007.30 1005.33 1003.21 1001.02 1000.77 1001.68 1002.29 1002.77 1002.68 1003.24 1004.15 1004.94 1005.19 1006.21 1007.55 1009.25 1009.91 1010.73 1010.96 1010.94 1011.10 1011.73 1013.09 1014.92 1015.97 1016.23 1016.48 1016.72 1016.90 1017.15 1017.21 1017.36 1017.54 1017.61 1017.76 1017.74 1017.79 1017.86 1017.88 1017.88 1017.80 1017.77 1017.74 1017.68 1017.57 1017.50 1017.42 1017.30 1017.20
1006.89 1004.29 1002.28 1001.15 1001.74 1001.23 1002.18 1002.75 1002.63 1003.08 1004.24 1004.89 1005.37 1005.90 1007.76 1008.88 1009.91 1010.55 1010.68 1011.04 1011.41 1011.98 1012.75 1014.47 1015.29 1016.08 1016.58 1016.68 1016.92 1017.09 1017.35 1017.57 1017.61 1017.71 1017.82 1017.81 1017.91 1017.90 1017.88 1017.86 1017.80 1017.78 1017.74 1017.68 1017.56 1017.46 1017.36 1017.17 1017.02
1006.07 1004.52 1002.41 1001.22 1000.80 1002.72 1002.01 1002.63 1002.82 1003.38 1004.07 1005.23 1005.28 1005.31 1006.97 1008.38 1009.83 1010.30 1010.55 1011.41 1011.45 1012.05 1012.45 1013.54 1014.41 1015.21 1015.76 1016.21 1016.97 1017.28 1017.55 1017.69 1017.74 1017.80 1017.79 1017.77 1017.81 1017.78 1017.75 1017.68 1017.77 1017.79 1017.81 1017.74 1017.63 1017.51 1017.32 1017.10 1016.83
1006.05 1004.64 1001.83 1000.65 1001.26 1002.10 1002.82 1002.59 1003.27 1003.82 1004.30 1005.13 1005.46 1005.82 1006.78 1008.65 1009.48 1009.85 1010.53 1010.90 1011.21 1011.77 1012.21 1012.66 1013.29 1014.06 1014.42 1014.94 1016.49 1017.29 1017.56 1017.73 1017.77 1017.71 1017.69 1017.50 1016.65 1016.91 1017.13 1017.53 1017.71 1017.75 1017.69 1017.57 1017.35 1017.15 1016.96 1016.64 1016.20
1005.40 1003.58 1001.31 1000.96 1001.33 1001.65 1002.54 1002.71 1003.53 1004.38 1004.24 1004.95 1005.69 1006.79 1007.33 1008.78 1009.19 1009.35 1009.81 1010.14 1010.77 1011.38 1011.80 1012.14 1012.59 1013.11 1013.33 1014.03 1015.93 1016.22 1016.49 1016.59 1016.68 1016.64 1017.02 1016.60 1016.46 1016.77 1016.81 1017.03 1017.20 1017.19 1017.17 1016.99 1016.55 1016.67 1016.43 1016.01 1014.86
1004.61 1003.37 1001.76 1002.23 1002.85 1002.82 1002.32 1003.01 1003.26 1003.71 1003.16 1003.42 1004.60 1006.40 1007.41 1008.37 1008.86 1008.95 1009.28 1009.65 1010.16 1010.85 1011.47 1011.86 1012.81 1013.41 1013.11 1013.65 1014.99 1015.09 1015.55 1015.90 1016.49 1016.87 1017.08 1017.05 1016.80 1016.54 1016.40 1016.23 1016.00 1016.32 1016.45 1015.78 1016.03 1015.92 1015.40 1015.07 1015.22
1004.30 1003.38 1002.90 1002.57 1003.42 1003.31 1002.76 1002.82 1002.81 1003.35 1001.49 1001.40 1003.81 1005.62 1007.20 1007.92 1008.33 1008.45 1008.79 1009.25 1009.78 1010.61 1011.27 1011.89 1012.93 1013.91 1013.67 1013.77 1014.61 1014.92 1015.17 1015.93 1016.08 1016.81 1017.44 1017.18 1016.83 1016.65 1016.89 1016.73 1016.72 1016.57 1016.39 1016.37 1016.18 1015.93 1015.77 1015.76 1015.47
1004.15 1003.61 1003.26 1003.27 1003.75 1003.57 1003.32 1003.05 1002.91 1003.26 1002.72 1003.62 1004.00 1005.39 1006.73 1007.40 1007.89 1008.18 1008.60 1009.10 1009.68 1010.52 1011.30 1011.98 1012.98 1014.19 1014.54 1014.86 1014.74 1015.02 1015.24 1015.84 1016.16 1016.74 1017.68 1017.72 1017.42 1017.74 1017.57 1017.38 1017.22 1017.05 1016.81 1016.65 1016.45 1016.24 1016.01 1015.91 1015.56
1003.89 1003.92 1003.33 1003.45 1003.34 1003.46 1003.66 1003.23 1003.18 1002.64 1003.16 1003.69 1004.35 1005.03 1006.28 1007.01 1007.56 1008.10 1008.73 1009.24 1009.95 1010.61 1011.38 1012.05 1012.98 1014.30 1014.69 1015.24 1015.19 1015.50 1015.88 1016.14 1016.35 1016.92 1017.82 1017.82 1017.84 1018.34 1017.88 1017.49 1017.20 1017.07 1017.08 1017.34 1017.21 1016.61 1016.44 1016.07 1015.66
1004.21 1004.05 1003.67 1003.37 1003.26 1003.31 1003.59 1002.96 1002.79 1002.73 1002.80 1003.46 1004.46 1005.13 1005.75 1006.59 1007.27 1007.92 1008.51 1009.34 1010.07 1010.77 1011.44 1012.32 1013.08 1014.01 1014.77 1015.25 1015.71 1015.78 1015.85 1015.89 1016.40 1017.11 1018.03 1017.98 1018.10 1018.33 1018.44 1017.56 1017.30 1017.36 1017.91 1017.88 1017.24 1016.72 1016.31 1015.87 1015.44
1004.34 1003.74 1002.48 1002.37 1002.83 1003.25 1003.70 1002.05 1002.23 1002.64 1002.91 1003.19 1003.82 1004.59 1005.52 1006.12 1006.81 1007.51 1008.27 1009.12 1009.95 1010.58 1011.42 1012.42 1012.84 1013.49 1014.75 1014.97 1015.37 1015.51 1015.77 1016.20 1016.71 1017.13 1017.67 1018.00 1017.91 1018.01 1018.04 1017.71 1017.67 1017.98 1018.06 1017.54 1017.16 1016.94 1016.58 1016.42 1015.81
1003.54 1002.43 1002.10 1001.51 1002.59 1002.69 1003.39 1002.02 1000.81 1001.87 1002.57 1003.02 1003.44 1003.91 1004.62 1005.73 1006.45 1007.25 1008.10 1008.72 1009.43 1010.44 1011.18 1012.28 1013.07 1013.21 1014.13 1015.04 1015.48 1015.77 1016.58 1016.64 1016.88 1017.14 1017.41 1018.13 1017.82 1018.00 1018.38 1017.90 1017.95 1018.47 1018.07 1017.31 1017.05 1017.17 1017.34 1016.71 1016.04
1002.09 1002.27 1001.42 1001.18 1002.27 1002.46 1002.66 1002.14 1001.35 1001.95 1002.45 1003.07 1003.33 1003.42 1003.85 1004.65 1005.67 1006.65 1007.90 1008.49 1009.14 1009.97 1011.15 1011.93 1012.70 1013.60 1014.01 1015.05 1015.71 1016.11 1016.58 1016.93 1017.23 1017.55 1017.98 1018.27 1018.05 1018.25 1018.37 1018.10 1018.33 1018.47 1017.88 1017.73 1017.54 1017.63 1017.70 1017.58 1016.82
1002.63 1001.78 1001.36 1001.29 1001.67 1002.42 1002.12 1001.82 1001.74 1001.67 1002.42 1002.73 1002.90 1003.20 1003.45 1003.69 1004.59 1005.66 1007.04 1008.62 1009.31 1010.07 1010.89 1012.01 1012.70 1013.70 1014.30 1015.10 1016.01 1016.42 1016.74 1017.10 1017.81 1018.06 1018.60 1018.54 1018.78 1018.98 1018.83 1018.34 1018.11 1018.29 1018.22 1018.28 1017.92 1018.08 1018.18 1017.95 1017.55
1003.74 1002.99 1002.06 1001.59 1001.93 1003.07 1002.60 1002.08 1001.91 1001.90 1002.33 1002.92 1003.06 1003.22 1004.08 1003.85 1002.01 1006.35 1008.13 1009.21 1010.23 1011.72 1012.81 1013.54 1014.02 1014.86 1015.47 1015.81 1016.47 1016.71 1016.77 1017.43 1017.68 1018.13 1018.96 1019.29 1019.31 1019.07 1019.13 1019.16 1018.88 1018.61 1018.53 1018.10 1018.49 1018.80 1018.51 1018.35 1017.47
1003.82 1003.23 1002.70 1002.20 1002.19 1003.05 1002.98 1001.86 1001.92 1002.26 1003.38 1003.85 1004.96 1005.71 1006.04 1006.45 1006.02 1007.54 1009.58 1010.97 1012.02 1012.74 1013.74 1014.77 1015.36 1015.87 1016.52 1016.69 1017.28 1017.55 1017.58 1017.79 1018.19 1018.58 1019.07 1019.25 1019.40 1019.24 1019.41 1019.03 1018.81 1019.07 1018.73 1018.38 1018.82 1018.72 1018.39 1018.23 1018.04
1003.52 1003.37 1003.20 1002.79 1002.61 1001.96 1002.15 1001.30 1000.67 1001.92 1003.55 1004.76 1005.80 1006.55 1007.67 1008.19 1008.43 1008.81 1010.68 1012.31 1013.38 1014.33 1015.10 1015.91 1016.42 1016.92 1017.18 1017.40 1017.37 1017.43 1017.50 1018.12 1018.63 1018.59 1018.86 1019.12 1019.29 1019.12 1019.03 1018.96 1018.88 1018.71 1018.42 1018.60 1018.49 1018.49 1018.39 1018.51 1017.96
1003.57 1003.16 1003.35 1003.32 1002.83 1002.47 1001.91 1001.81 1000.86 1002.12 1003.27 1004.75 1006.64 1007.98 1008.99 1009.62 1009.71 1010.68 1011.90 1013.21 1014.34 1015.07 1015.70 1016.49 1017.10 1017.56 1017.96 1018.23 1018.25 1018.01 1018.46 1018.20 1018.64 1019.05 1019.05 1018.93 1018.67 1018.60 1018.64 1018.69 1018.66 1018.58 1018.42 1018.43 1018.38 1018.09 1018.26 1018.36 1017.97
1003.79 1004.30 1003.97 1003.62 1003.08 1002.24 1001.94 1001.46 1000.71 1001.19 1002.40 1004.60 1007.26 1008.57 1009.59 1010.50 1011.39 1012.29 1013.06 1013.82 1014.60 1015.39 1016.13 1017.08 1017.92 1018.51 1018.72 1018.81 1019.02 1019.06 1019.10 1019.04 1018.84 1019.21 1018.63 1018.33 1018.01 1018.03 1018.17 1018.64 1018.44 1018.54 1018.50 1018.27 1018.09 1017.90 1017.82 1017.64 1017.72
1003.94 1003.91 1003.12 1002.90 1002.19 1001.46 1001.13 1001.36 1001.36 1002.87 1003.63 1004.51 1006.87 1008.50 1009.70 1010.52 1011.47 1012.30 1012.99 1013.80 1014.68 1015.51 1016.32 1017.23 1017.88 1018.47 1018.82 1019.01 1019.23 1019.44 1019.59 1019.57 1019.10 1019.46 1018.88 1019.18 1018.54 1018.25 1018.20 1018.56 1018.36 1018.56 1018.29 1018.18 1017.81 1017.72 1017.48 1017.38 1017.12
1003.27 1003.04 1002.02 1001.50 1000.88 1000.47 1001.26 1001.49 1001.58 1003.29 1004.62 1005.92 1007.09 1008.56 1009.66 1010.13 1011.17 1012.05 1012.99 1013.88 1014.76 1015.74 1016.56 1017.31 1017.88 1018.33 1018.82 1019.21 1019.60 1019.93 1020.01 1019.54 1019.35 1019.55 1019.61 1018.96 1018.64 1018.50 1018.61 1018.40 1018.36 1018.34 1017.98 1017.75 1017.68 1017.41 1017.41 1017.05 1016.73
1002.04 1002.46 1002.28 1002.00 1001.62 1001.21 1001.06 1001.73 1002.73 1003.62 1004.62 1006.03 1007.03 1008.24 1009.43 1010.27 1011.35 1012.28 1013.32 1014.22 1015.17 1016.13 1016.87 1017.35 1017.84 1018.47 1019.06 1019.50 1019.70 1019.89 1020.01 1019.94 1019.95 1019.79 1019.61 1019.08 1018.96 1018.84 1018.52 1018.34 1018.28 1017.74 1017.62 1017.39 1017.26 1016.93 1016.92 1016.77 1016.41
1001.93 1002.00 1002.45 1002.67 1002.19 1001.58 1001.19 1000.99 1000.96 1002.72 1003.79 1005.29 1006.43 1007.64 1009.18 1010.33 1011.40 1012.54 1013.42 1014.56 1015.46 1016.43 1017.18 1017.59 1017.95 1018.59 1019.10 1019.46 1019.64 1019.79 1019.86 1019.93 1019.93 1019.91 1019.62 1019.40 1019.19 1019.02 1018.65 1018.21 1017.91 1017.60 1017.46 1017.43 1017.30 1017.03 1016.72 1016.45 1015.93
1001.62 1001.81 1001.87 1002.08 1002.12 1001.83 1001.63 1001.33 1001.68 1002.45 1003.26 1004.32 1005.47 1006.85 1008.70 1009.96 1011.27 1012.50 1013.79 1014.95 1015.71 1016.37 1016.97 1017.72 1018.19 1018.67 1019.11 1019.68 1019.67 1019.83 1019.98 1019.94 1020.01 1019.90 1019.63 1019.47 1019.27 1018.81 1018.35 1018.01 1017.67 1017.33 1017.07 1016.98 1016.89 1016.79 1016.22 1016.11 1015.59
1001.05 1001.50 1001.93 1002.07 1002.55 1002.47 1002.32 1001.75 1002.38 1002.35 1003.04 1004.16 1005.00 1006.48 1008.30 1009.74 1011.23 1012.56 1013.93 1015.10 1015.92 1016.43 1017.24 1017.99 1018.50 1018.78 1019.15 1019.77 1019.91 1020.20 1020.28 1020.30 1019.98 1019.99 1019.61 1019.60 1019.27 1018.66 1018.25 1017.79 1017.44 1017.05 1016.83 1016.79 1016.51 1016.29 1016.19 1015.67 1015.23
Wind_Speed
10 13 11 8 9 10 13 11 12 11 11 6 9 9 11 8 13 2 12 9 15 18 16 15 12 12 12 12 12 12 12 11 10 10 9 8 7 6 6 5 4 3 3 3 3 3 2 3 4
13 7 9 9 12 5 10 14 11 15 9 8 7 7 8 14 10 14 13 12 13 16 14 15 12 12 12 11 10 10 11 10 9 8 7 6 5 5 4 4 3 2 1 1 1 1 2 3 4
14 10 11 9 17 13 14 15 17 13 5 5 7 5 8 11 9 11 17 14 14 14 14 15 13 12 12 12 10 9 9 8 8 8 8 7 7 6 5 4 2 1 1 2 2 3 3 4 5
8 7 8 12 9 8 14 17 16 13 7 3 8 12 11 12 10 10 14 14 13 14 16 15 12 11 11 11 10 8 8 8 8 8 8 8 7 6 4 3 3 2 2 3 4 5 5 6 6
9 9 14 15 1 9 8 8 10 13 9 10 2 7 13 8 12 15 14 12 12 13 18 15 11 10 11 11 10 9 9 9 9 10 9 8 7 6 5 4 3 2 3 4 5 6 6 6 7
11 10 15 16 10 9 8 8 8 14 8 9 12 13 13 13 14 13 13 12 11 12 14 14 12 11 10 10 10 10 9 9 8 8 8 7 6 5 4 4 3 3 3 4 4 5 6 7 7
15 14 18 1 17 13 10 8 8 13 12 4 11 9 11 12 14 13 11 9 10 11 15 13 13 12 10 10 10 9 7 7 7 7 7 6 6 6 5 5 3 3 3 4 5 6 7 7 8
12 14 22 10 5 14 13 10 4 3 13 8 6 8 15 16 14 12 12 10 11 10 13 14 13 14 13 13 10 8 7 6 5 5 6 7 7 6 7 7 3 3 5 6 6 7 8 9 10
12 13 16 11 4 20 11 11 7 2 13 7 2 8 16 18 15 12 12 12 11 9 11 12 14 14 13 14 12 8 7 5 5 7 5 8 10 9 10 9 5 0 4 7 9 10 10 13 15
14 14 21 11 8 4 11 10 10 7 8 8 9 9 17 16 12 12 12 12 12 11 12 11 11 12 12 10 12 10 10 9 8 6 4 9 5 6 8 2 9 10 11 12 14 13 15 16 12
15 18 8 7 7 9 7 12 13 13 15 15 15 13 16 16 12 11 11 12 12 11 9 11 8 8 9 8 8 6 6 5 3 3 4 5 6 4 6 5 5 5 7 8 8 11 9 15 13
18 16 10 2 6 6 6 9 13 13 12 12 10 18 16 15 13 11 11 12 11 11 10 10 11 7 5 5 5 5 4 4 4 7 3 2 4 4 6 6 8 8 8 10 10 9 13 15 15
13 20 12 10 8 8 6 9 9 14 6 3 9 17 16 15 14 9 9 10 10 11 11 10 13 8 5 3 4 2 3 5 7 3 7 5 5 6 7 6 7 8 9 10 11 11 11 14 16
12 18 10 14 14 12 11 13 12 13 12 13 7 12 15 16 14 10 10 10 9 9 12 10 11 10 8 6 2 4 3 5 4 4 4 4 4 4 5 6 7 8 9 10 12 12 12 12 14
6 12 13 16 15 11 11 15 16 16 14 13 12 11 11 14 15 13 13 11 11 10 8 9 9 12 8 8 6 5 4 5 3 5 3 3 3 3 6 6 7 8 9 13 12 12 12 12 12
15 15 18 20 13 9 12 17 17 15 9 15 15 13 12 13 14 15 12 13 12 11 12 10 11 14 10 8 7 5 5 4 4 4 4 0 3 3 4 6 7 8 9 9 10 11 11 13 13
13 15 16 14 14 14 15 20 18 18 15 13 12 13 14 12 15 13 13 13 14 14 12 13 11 11 13 9 5 5 4 4 4 4 3 1 2 5 6 6 6 8 9 8 9 10 12 12 12
15 15 16 9 12 13 16 20 5 8 8 12 14 14 13 16 14 17 14 13 13 13 13 10 12 10 8 8 6 6 6 3 3 2 2 2 4 6 6 6 6 8 7 9 10 11 11 12 12
11 12 16 6 10 11 15 17 15 8 13 14 15 16 15 15 14 12 16 11 8 8 9 9 9 7 7 7 5 5 4 3 1 1 2 5 7 8 6 6 6 7 8 10 9 10 11 10 11
11 14 13 7 9 9 16 16 11 13 4 10 9 10 15 11 14 17 13 3 4 10 3 2 3 4 5 3 4 5 7 4 1 1 4 6 5 5 5 6 7 8 8 9 10 9 7 8 9
15 15 14 14 12 12 19 18 14 9 8 4 4 6 11 12 8 14 8 6 5 5 5 6 6 5 0 4 3 2 2 3 5 3 4 3 5 7 6 6 6 7 7 7 7 6 7 8 11
15 15 16 13 14 12 21 14 23 16 10 7 6 6 6 4 4 7 12 8 7 7 8 8 7 5 0 1 3 5 3 5 3 3 3 4 4 4 6 7 7 7 6 6 6 6 7 7 10
13 8 11 15 14 15 13 9 3 13 15 13 8 8 7 5 10 10 10 10 9 7 8 8 8 8 11 11 10 2 3 2 3 3 3 3 3 1 3 7 7 8 7 8 8 7 6 6 7
8 7 12 14 14 15 19 12 12 15 13 14 11 10 8 10 11 11 11 11 11 11 11 11 10 8 6 6 6 5 4 5 6 5 5 6 5 4 4 7 8 7 7 9 8 6 7 7 7
11 12 9 10 12 13 16 16 2 9 6 12 15 12 9 11 12 12 12 12 11 11 10 10 8 8 7 7 7 6 5 4 3 7 7 8 7 6 6 9 7 6 8 10 8 9 9 6 7
17 16 11 9 12 13 12 10 6 13 13 11 11 11 10 11 11 12 12 11 11 10 9 10 9 8 7 7 7 7 5 4 4 5 5 6 7 8 10 9 10 7 7 7 9 8 7 6 7
18 17 17 15 16 10 13 11 10 15 14 11 12 12 11 11 11 12 11 11 11 9 8 8 8 8 7 6 4 5 5 5 5 5 6 7 8 9 10 10 11 11 9 10 10 8 9 8 8
22 9 12 8 12 13 13 13 7 17 17 14 13 12 12 11 12 11 11 10 10 9 8 7 7 7 6 6 5 4 3 5 5 6 7 9 9 10 10 11 11 10 8 10 9 9 10 10 10
14 15 13 13 10 11 11 0 13 12 14 15 14 14 14 13 12 11 11 10 9 9 9 7 7 6 6 4 4 3 5 5 5 5 8 10 10 10 10 10 10 10 9 9 5 9 9 9 12
21 20 18 11 14 9 10 12 4 3 11 12 13 13 14 12 12 11 11 10 9 8 8 7 5 6 5 4 4 4 6 5 6 6 9 10 10 10 10 10 10 11 11 12 11 14 14 15 11
Wind_Direction
220 225 239 259 248 226 103 80 100 133 99 67 83 38 29 48 15 99 128 142 123 123 128 139 132 134 135 137 141 138 138 143 149 151 147 137 126 125 124 119 109 96 81 68 55 43 26 1 341
257 268 241 273 256 64 348 110 105 60 63 96 115 179 106 81 51 110 127 141 141 126 147 136 139 142 145 147 151 151 152 154 154 149 144 144 150 157 153 143 141 139 113 33 342 320 322 316 313
262 259 272 240 248 127 229 105 90 83 116 137 102 8 26 72 118 122 116 141 130 143 144 121 146 149 156 161 164 163 158 155 159 158 165 171 174 179 180 182 187 224 283 303 309 312 316 313 311
249 211 237 255 320 44 62 75 102 123 127 81 125 87 85 75 132 109 144 145 145 148 131 134 147 157 161 162 170 167 162 167 172 179 181 184 190 195 198 209 229 259 284 300 312 320 322 322 317
237 260 262 237 235 89 79 137 136 98 118 121 80 117 100 96 95 127 144 154 164 144 117 144 150 158 163 171 168 173 175 179 187 190 194 194 198 206 214 230 247 278 304 307 309 313 316 313 312
254 250 262 248 113 116 133 154 133 99 110 87 97 106 96 121 135 140 159 164 153 132 130 132 151 162 169 174 173 181 183 187 192 192 201 203 208 217 230 249 271 299 314 315 315 320 317 308 305
257 278 270 91 194 144 145 172 176 108 128 125 121 103 108 151 130 156 166 140 132 140 134 155 165 170 178 179 182 182 182 189 195 207 216 218 224 226 233 246 263 302 330 338 337 330 326 308 295
269 278 274 256 230 24 137 170 185 149 111 92 202 119 148 126 152 156 131 157 161 158 144 156 162 170 179 174 180 176 184 192 198 217 223 219 214 215 220 230 173 43 5 345 326 311 305 299 285
254 268 258 220 250 164 140 182 168 111 122 167 127 69 113 129 155 161 152 170 154 172 152 167 171 166 188 161 157 170 180 184 199 191 200 214 207 178 174 93 106 35 278 283 272 265 264 261 259
237 239 262 45 41 350 153 211 175 174 170 167 136 108 124 146 165 167 171 168 164 176 167 166 181 160 191 148 139 187 172 189 194 186 201 250 36 16 333 237 195 219 231 245 243 245 250 254 271
224 259 307 90 37 314 198 219 164 213 189 170 167 145 149 164 174 174 180 172 172 163 170 172 173 164 180 163 161 173 162 135 127 101 326 48 344 47 293 334 278 282 220 294 337 300 301 328 321
238 246 295 138 130 250 245 212 171 210 252 141 155 140 162 176 178 185 181 171 163 153 160 164 155 166 256 140 197 139 161 160 187 84 330 3 274 8 347 318 344 314 333 330 312 318 324 308 314
230 262 226 255 225 247 272 225 212 207 244 107 148 142 173 185 182 179 178 171 167 157 156 179 147 163 174 284 170 215 143 197 84 191 75 2 331 14 328 342 315 327 325 323 320 316 315 312 304
219 240 246 248 224 218 235 240 228 230 205 160 199 176 179 188 191 178 177 187 181 168 156 175 160 154 177 213 176 172 231 111 207 90 54 79 355 16 332 314 335 320 329 332 315 317 313 310 304
271 260 237 243 228 234 236 229 211 237 194 217 191 187 191 193 192 190 183 184 182 182 172 181 184 160 204 192 183 214 167 199 144 129 130 100 47 26 331 328 319 334 344 315 312 313 309 307 311
241 235 241 207 210 202 221 227 207 215 207 210 195 200 199 205 206 192 194 178 183 201 187 183 199 169 185 196 188 204 159 185 170 166 142 80 94 51 328 331 333 350 318 312 319 317 320 320 313
206 240 230 162 186 195 215 247 221 178 208 212 219 209 188 213 202 201 197 190 190 190 190 188 208 221 173 203 197 206 129 206 175 178 154 28 26 11 345 335 334 335 309 313 321 333 320 315 313
215 219 220 196 170 234 202 249 214 177 227 225 244 229 205 186 211 186 202 217 191 193 187 214 188 208 183 155 190 185 184 191 189 159 56 6 14 6 354 333 346 318 323 326 340 326 331 318 323
328 289 249 196 157 217 235 214 246 210 196 235 226 232 217 207 182 193 174 205 232 190 205 188 221 156 192 177 195 191 178 167 252 117 318 3 12 5 2 346 349 329 333 334 349 338 332 320 311
256 262 267 251 164 196 254 246 252 258 189 264 294 309 8 330 155 82 48 95 269 83 50 123 257 149 222 152 209 220 223 73 191 34 12 21 3 2 341 350 341 3 340 339 356 335 316 302 316
240 244 242 254 207 204 257 258 241 152 249 226 54 2 23 10 10 107 113 84 46 61 79 64 49 73 8 113 95 113 128 196 221 106 357 356 353 358 358 351 353 350 338 355 328 315 323 326 315
245 223 255 252 251 233 204 250 223 163 178 190 136 85 54 360 164 99 106 101 77 73 82 94 86 97 116 213 188 219 270 5 31 316 58 334 346 327 351 0 360 351 347 327 330 338 328 312 317
251 334 211 244 245 254 215 247 247 152 178 144 103 85 82 57 76 91 92 100 104 113 105 100 99 69 44 43 23 348 316 48 60 340 299 271 243 243 333 357 347 359 338 341 327 328 313 300 315
238 227 242 244 240 235 243 254 232 188 184 120 116 112 111 113 109 108 109 113 113 112 108 103 91 85 76 74 71 56 54 14 359 357 305 356 318 330 36 353 343 343 338 328 319 324 304 333 295
221 217 213 212 226 239 221 220 243 91 82 110 132 128 130 128 125 126 126 119 117 117 115 120 113 107 103 86 70 58 51 31 6 346 358 320 343 342 358 339 336 332 327 324 323 321 326 321 295
214 222 246 217 212 229 143 207 198 115 110 117 122 122 135 130 123 121 121 124 116 108 107 118 121 112 97 84 73 54 23 37 357 19 336 311 331 325 346 326 319 308 301 316 322 323 308 304 309
205 215 247 285 283 282 182 116 136 147 137 150 151 149 138 133 129 127 123 121 122 113 110 109 107 98 91 99 98 69 28 20 360 344 333 357 333 330 334 315 311 313 323 318 322 315 310 306 305
249 202 231 230 259 254 248 244 201 169 167 175 172 168 150 147 140 135 135 126 127 120 120 108 94 99 91 74 46 28 38 6 359 345 347 345 339 328 320 313 310 312 320 318 309 311 311 310 302
202 233 236 253 240 232 250 81 77 166 178 180 185 169 159 162 148 149 135 140 140 147 130 125 120 116 108 89 59 38 359 17 350 348 354 350 335 331 324 322 318 312 302 286 310 288 278 314 309
211 213 230 234 233 256 283 286 84 141 159 173 186 159 153 159 149 149 145 146 153 141 132 119 114 115 78 71 29 29 359 312 7 358 358 350 340 337 329 326 319 315 328 326 318 325 330 309 310